Location: Unspecified
(25.6470°N, 106.8560°E)
Time: 18:17:18
(UTC+00:00)

Daily predictions for brighter satellites

Satellite Brightness Start Highest point End
(mag) Time Altitude Azimuth Time Altitude Azimuth Time Altitude Azimuth
Cosmos 1544 4.1 12:03:07 24° E 12:03:07 24° E 12:06:01 10° NE
HJ-1C 3.3 12:00:55 10° SSE 12:04:16 69° ENE 12:07:38 10° N
FengYun 1-2 T 4.2 12:01:27 10° SSE 12:06:56 70° ENE 12:12:29 10° N
Cosmos 2278 Rocket 2.1 12:05:15 10° SSW 12:10:54 86° ESE 12:16:36 10° NNE
Spot 2 Rocket 3.5 12:08:46 10° SSE 12:13:43 57° ENE 12:18:43 10° N
Helios 1A 4.0 12:20:54 28° ENE 12:20:54 28° ENE 12:23:53 10° NNE
SL-27 R/B 4.2 12:18:52 10° NNE 12:20:24 19° NE 12:20:24 19° NE
H-2A R/B (2) 1.7 12:19:26 10° WNW 12:22:15 63° NNE 12:24:29 30° E
Cosmos 2297 4.0 12:17:16 10° S 12:22:36 43° ESE 12:27:57 10° NE
FENGYUN 3A 3.9 12:18:05 10° S 12:23:28 71° WSW 12:28:52 10° NNW
CZ-2D R/B 3.2 12:24:08 41° SE 12:25:09 58° ENE 12:28:57 10° N
Resurs 1-3 3.5 12:22:24 16° SSE 12:25:52 72° ENE 12:30:13 10° N
Yuri Rocket 3.1 12:22:04 10° W 12:26:11 60° N 12:27:29 39° ENE
Helios 1B rocket 2.2 12:24:46 10° NNE 12:28:54 77° ESE 12:33:00 10° S
Envisat 4.2 12:32:56 25° NE 12:32:56 25° NE 12:35:57 10° NNE
Meteor 1-24 Rocket 3.6 12:26:14 10° N 12:31:46 86° E 12:37:31 10° S
Cosmos 1805 3.0 12:28:00 10° S 12:31:52 73° E 12:35:44 10° N
Cosmos 1605 Rocket 3.9 12:26:14 10° S 12:32:26 90° W 12:38:45 10° N
Cosmos 1125 Rocket 3.3 12:31:44 10° S 12:36:51 64° ESE 12:41:59 10° NNE
ATLAS 5 CENTAUR R/B 3.7 12:33:43 10° S 12:34:27 14° S 12:34:27 14° S
Delta 2 Rocket 3.8 12:36:04 10° W 12:42:47 89° S 12:44:34 49° E
Timation 1 Rocket 4.3 12:37:52 10° SSW 12:43:52 89° WNW 12:49:54 10° NNE
Cosmos 2082 Rocket 4.3 12:45:37 10° NNE 12:46:34 13° NNE 12:46:34 13° NNE
SWIFT 3.4 12:46:00 10° WSW 12:49:30 36° SSW 12:49:30 36° SSW
Cosmos 1758 3.7 12:52:28 59° NW 12:52:28 59° NW 12:55:53 10° N
Cosmos 2123 Rocket 4.2 12:47:48 10° N 12:54:05 73° W 13:00:19 10° S
COSMOS 2406 4.2 12:49:19 10° NNW 12:54:44 44° WSW 12:59:55 11° S
Delta 128 3.7 12:53:58 10° W 12:58:00 70° WNW 12:58:00 70° WNW
Okean 3 Rocket 4.1 12:56:25 10° N 12:59:47 52° NNW 12:59:47 52° NNW
Cosmos 1953 3.7 13:04:01 35° NNW 13:04:01 35° NNW 13:06:38 10° N
Resurs 01 Rocket 3.9 13:09:48 10° SSW 13:13:14 22° W 13:16:42 10° NW
Centaur AC-42 4.0 13:22:44 10° WSW 14:03:43 64° SSW 14:03:43 64° SSW
ADEOS II 3.9 20:00:00 10° NE 20:03:11 27° ENE 20:03:11 27° ENE
Okean O Rocket 4.4 20:09:25 10° NNE 20:10:02 14° NNE 20:10:02 14° NNE
Lacrosse 5 3.6 20:20:03 29° NE 20:20:07 29° NE 20:24:30 10° ESE
CZ-4B R/B 3.7 20:24:40 10° NNE 20:29:44 58° ENE 20:29:44 58° ENE
Cosmos 2074 Rocket 4.1 20:28:07 10° N 20:34:21 71° E 20:36:09 47° SSE
COSMOS 2428 2.9 20:37:45 67° E 20:37:45 67° E 20:43:05 10° NNE
ASTRO E2 4.4 20:48:06 32° ENE 20:48:06 32° ENE 20:50:36 10° E
Cosmos 2219 Rocket 3.2 20:44:05 25° SSE 20:46:50 42° ESE 20:52:02 10° NE
Hubble Space Telescope 2.6 21:00:10 23° SE 21:00:10 23° SE 21:03:08 10° E
Cosmos 2360 Rocket 3.8 21:05:22 20° NNW 21:05:22 20° NNW 21:07:42 10° N
Lacrosse 4 Rocket 3.8 21:00:23 10° N 21:03:51 24° ENE 21:07:22 10° ESE
Cosmos 1570 Rocket 4.2 21:07:28 50° NW 21:07:28 50° NW 21:11:54 10° N
Cosmos 2184 Rocket 3.9 21:01:54 10° NNW 21:07:58 59° W 21:14:08 10° S
Cosmos 2237 Rocket 3.5 21:05:42 10° S 21:10:52 38° ESE 21:16:05 10° NE
CZ-2C R/B 3.8 21:07:12 10° SSE 21:11:51 77° ENE 21:16:26 10° N
NOSS 0 Rocket 4.5 21:10:14 10° S 21:16:16 58° ESE 21:22:17 10° NNE
Cosmos 468 Rocket 4.4 21:13:47 11° S 21:18:38 63° ESE 21:23:45 10° NNE
Palapa B4 Rocket 3.9 21:21:17 38° SSW 21:22:16 43° S 21:28:19 10° ESE
Meteor 1-12 Rocket 4.3 21:18:15 10° NNW 21:23:45 55° W 21:29:20 10° S
Aureole 2 Rocket 4.3 21:20:41 10° SSE 21:24:16 34° ESE 21:27:37 10° NE
Cosmos 2333 Rocket 2.3 21:20:33 12° SSW 21:25:44 79° ESE 21:31:28 10° NNE
Meteor PRIRODA 3.7 21:23:32 10° N 21:27:01 55° WNW 21:27:01 55° WNW
Cosmos 2263 Rocket 3.5 21:32:23 21° SSW 21:32:23 21° SSW 21:34:37 10° SSW
GOES 2 Rocket 3.7 21:29:13 35° WNW 21:31:21 67° N 21:37:48 10° E
Cosmos 1437 4.4 21:31:40 10° SSE 21:34:40 35° E 21:37:42 10° NNE
Okean 2 4.4 21:30:50 10° SSE 21:34:47 47° E 21:38:47 10° NNE
OAO 2 Rocket 4.0 21:37:00 31° WSW 21:38:18 36° SSW 21:42:59 10° SSE
Meteor 1-13 Rocket 4.4 21:35:12 21° SW 21:38:29 44° W 21:43:46 10° N
USA 215 3.2 21:33:02 10° SE 21:39:36 87° SW 21:46:12 10° NW
Cosmos 2154 Rocket 3.9 21:35:28 10° NNW 21:41:33 61° W 21:47:38 10° S
GPS 2-18 Rocket1 3.9 21:41:20 30° SW 21:42:41 40° S 21:46:30 10° ESE
ADEOS II 3.3 21:40:06 10° NNW 21:44:02 22° WNW 21:44:09 22° WNW
ERS-2 2.9 21:43:05 10° N 21:46:24 32° WNW 21:46:53 31° W
GPS 2-04 Rocket1 2.5 21:44:58 32° WSW 21:46:39 83° NNW 21:50:25 10° ENE
GENESIS II 4.2 21:43:42 16° SSW 21:46:50 87° WNW 21:50:54 10° NNE
Meteor 2-19 Rocket 4.5 21:41:26 10° N 21:47:32 83° E 21:53:35 10° S
USA 229 DEB 3.9 21:43:14 19° SW 21:47:59 50° WNW 21:54:40 10° NNE
USA 229 3.9 21:43:17 19° SW 21:48:06 51° WNW 21:54:46 10° NNE
Cosmos 1763 Rocket 3.9 21:45:31 10° S 21:50:29 64° ESE 21:55:31 10° NNE
CZ-4B R/B 4.4 21:47:12 10° N 21:51:30 45° WNW 21:55:44 10° SSW
Cosmos 2181 Rocket 4.1 21:46:09 10° SSW 21:52:07 53° W 21:58:11 10° N
Delta 142 4.1 21:48:30 19° WNW 21:53:06 83° NNE 21:58:02 10° E
PSLV R/B 3.3 21:51:10 20° NW 21:53:24 79° NNE 21:56:46 10° ESE
COSMO-SKYMED 1 4.2 21:50:41 10° SE 21:54:41 37° ENE 21:58:41 10° N
NOAA 6 3.9 21:51:57 10° N 21:57:03 74° WNW 22:02:08 10° SSW
Okean-O 3.2 21:54:57 10° N 21:59:00 36° WNW 22:03:02 10° SW
NOSS 3-1 (A) 4.1 21:55:17 10° S 22:00:41 52° ESE 22:06:29 10° NE
OTV 4 1.2 21:59:54 16° SSW 22:01:51 41° SE 22:04:29 10° ENE
Cosmos 841 Rocket 3.9 21:56:55 10° S 22:02:02 66° ESE 22:07:08 10° NNE
Lacrosse 5 2.7 21:59:24 13° WNW 22:02:57 28° WSW 22:07:13 10° S
Cosmos 1441 Rocket 4.3 21:59:56 10° S 22:03:42 50° E 22:07:33 10° NNE
NOSS 3-1 (C) 3.3 21:59:06 10° SSW 22:04:40 84° ESE 22:10:42 10° NNE
Cosmos 1844 4.3 21:59:13 10° N 22:04:54 63° ENE 22:10:29 10° SSE
SL-16 R/B 3.3 21:59:59 10° S 22:05:21 47° ESE 22:10:46 10° NNE
Cosmos 405 Rocket 2.9 22:02:33 10° SSW 22:06:31 54° W 22:10:30 10° N
SL-8 Rocket 4.0 22:00:24 10° N 22:06:36 89° E 22:12:46 10° S
ISS -3.7 22:03:24 10° NW 22:06:42 79° NE 22:09:59 10° SE
Cosmos 1814 Rocket 4.1 22:02:43 10° SSW 22:07:50 54° WNW 22:12:54 10° N
Cosmos 1025 Rocket 3.6 22:05:31 10° SSW 22:09:31 36° W 22:13:33 10° NNW
Cosmos 1892 Rocket 3.5 22:05:25 10° S 22:09:44 85° W 22:14:05 10° N
Cosmos 1515 3.9 22:09:28 10° S 22:13:16 77° E 22:17:07 10° N
Cosmos 1980 4.1 22:11:47 10° SW 22:17:05 42° WNW 22:22:25 10° N
Cosmos 2341 Rocket 4.4 22:12:33 10° NNW 22:18:15 39° W 22:23:55 10° SSW
Cosmos 1666 3.6 22:21:28 10° NNW 22:24:48 28° W 22:28:08 10° SSW
Cosmos 1743 4.3 22:23:25 10° NW 22:25:39 15° W 22:27:53 10° SW
EXPRESS MD2 4.4 22:21:17 10° WSW 22:26:20 30° NW 22:29:15 10° NNE
ASTRO E2 2.8 22:23:26 10° WNW 22:27:24 60° SSW 22:31:21 10° ESE
Cosmos 2218 Rocket 4.0 22:22:19 10° N 22:28:40 72° W 22:34:54 10° S
Cosmos 2219 Rocket 3.6 22:27:07 10° WSW 22:30:51 18° WNW 22:34:35 10° NNW
CSL-04 Rocket 4.0 22:25:23 10° NNE 22:30:56 77° ESE 22:36:29 10° S
VEP-3 3.1 22:32:10 10° W 22:43:54 77° S 22:49:08 10° E
